Weather History for KCRE - March, 2012

Change the Weather History Date:

Thursday, March 15, 2012

  Actual Average Record
Temperature  
Mean Temperature 66 °F 54 °F  
Max Temperature 77 °F 64 °F 77 °F (2012)
Min Temperature 54 °F 44 °F 21 °F (1993)
Degree Days  
Heating Degree Days 0 11  
Month to date heating degree days 105 190  
Since 1 July heating degree days 1686 2134  
Cooling Degree Days 1 0  
Month to date cooling degree days 8 0  
Year to date cooling degree days 8 0  
Growing Degree Days 14 (Base 50)    
Moisture  
Dew Point 58 °F    
Average Humidity 80    
Maximum Humidity 100    
Minimum Humidity 60    
Precipitation  
Precipitation 0.00 in 0.13 in 1.14 in (2003)
Month to date precipitation 2.63 1.89  
Year to date precipitation 5.87 9.00  
Sea Level Pressure  
Sea Level Pressure 30.26 in    
Wind  
Wind Speed 6 mph (SSW)    
Max Wind Speed 15 mph    
Max Gust Speed 20 mph    
Visibility 7 miles    
Events Fog    
T = Trace of Precipitation, MM = Missing Value Source: NWS Daily Summary

Daily Weather History Graph

Daily Weather History Graph

Search for Another Location

Airport or City:

Trip Planner

Search our weather history database for the weather conditions in past years. The results will help you decide how hot, cold, wet, or windy it might be!

Date:

Astronomy

Mar. 15, 2012 Rise Set
Actual Time 7:24 AM EDT 7:23 PM EDT
Civil Twilight 6:59 AM EDT 7:47 PM EDT
Nautical Twilight 6:30 AM EDT 8:16 PM EDT
Astronomical Twilight 6:01 AM EDT 8:46 PM EDT
Moon 2:34 AM EDT (3/15) 12:54 PM EDT (3/15)
Length of Visible Light 12h 48m
Length of Day
11h 58m
Last Quarter, 43% of the Moon is Illuminated
Mar 15
Last Quarter
Mar 22
New
Mar 30
First Quarter
Apr 6
Full
Apr 13
Last Quarter

Hourly Weather History & Observations

Time (EDT) Temp. Dew Point Humidity Pressure Visibility Wind Dir Wind Speed Gust Speed Precip Events Conditions
12:53 AM 59.0 °F 57.0 °F 93% 30.25 in 9.0 mi SSW 3.5 mph - N/A   Clear
1:53 AM 60.1 °F 57.9 °F 93% 30.25 in 9.0 mi SSW 3.5 mph - N/A   Clear
2:53 AM 59.0 °F 57.9 °F 96% 30.25 in 1.8 mi Calm Calm - 0.01 in   Clear
3:05 AM 57.2 °F 55.4 °F 94% 30.24 in 0.5 mi Calm Calm - N/A Fog Fog
3:43 AM 57.2 °F 57.2 °F 100% 30.24 in 2.5 mi Calm Calm - N/A   Clear
3:50 AM 57.2 °F 55.4 °F 94% 30.24 in 6.0 mi West 3.5 mph - N/A   Clear
3:53 AM 57.0 °F 55.9 °F 96% 30.24 in 7.0 mi West 3.5 mph - N/A   Clear
4:53 AM 54.0 °F 53.1 °F 97% 30.24 in 9.0 mi Calm Calm - N/A   Clear
5:07 AM 55.4 °F 53.6 °F 94% 30.24 in 2.0 mi Calm Calm - N/A   Clear
5:16 AM 57.2 °F 55.4 °F 94% 30.24 in 5.0 mi Calm Calm - N/A   Clear
5:31 AM 55.4 °F 55.4 °F 100% 30.24 in 1.8 mi Calm Calm - N/A   Clear
5:42 AM 55.4 °F 55.4 °F 100% 30.24 in 3.0 mi Calm Calm - N/A   Clear
5:50 AM 55.4 °F 53.6 °F 94% 30.25 in 1.5 mi Calm Calm - N/A   Clear
5:53 AM 55.0 °F 54.0 °F 96% 30.25 in 1.0 mi Calm Calm - N/A   Clear
6:04 AM 55.4 °F 53.6 °F 94% 30.25 in 4.0 mi Calm Calm - N/A   Clear
6:53 AM 59.0 °F 55.9 °F 90% 30.27 in 9.0 mi South 6.9 mph - N/A   Clear
7:53 AM 59.0 °F 55.9 °F 90% 30.29 in 10.0 mi Calm Calm - N/A   Clear
8:53 AM 64.0 °F 59.0 °F 84% 30.30 in 10.0 mi Calm Calm - N/A   Clear
9:53 AM 66.0 °F 59.0 °F 78% 30.31 in 10.0 mi SSW 6.9 mph - N/A   Clear
10:53 AM 72.0 °F 60.1 °F 66% 30.30 in 10.0 mi WSW 3.5 mph - N/A   Clear
11:53 AM 71.1 °F 60.1 °F 68% 30.30 in 10.0 mi South 9.2 mph - N/A   Clear
12:53 PM 72.0 °F 61.0 °F 68% 30.30 in 10.0 mi South 4.6 mph - N/A   Clear
1:53 PM 75.9 °F 61.0 °F 60% 30.29 in 10.0 mi South 9.2 mph - N/A   Clear
2:53 PM 73.9 °F 61.0 °F 64% 30.25 in 10.0 mi South 8.1 mph - N/A   Clear
3:53 PM 75.0 °F 61.0 °F 62% 30.24 in 10.0 mi South 8.1 mph - N/A   Clear
4:53 PM 70.0 °F 62.1 °F 76% 30.24 in 10.0 mi South 10.4 mph - N/A   Clear
5:53 PM 69.1 °F 62.1 °F 78% 30.23 in 10.0 mi SSW 11.5 mph - N/A   Clear
6:53 PM 66.0 °F 62.1 °F 87% 30.23 in 10.0 mi South 9.2 mph - N/A   Clear
7:53 PM 66.9 °F 62.1 °F 84% 30.23 in 10.0 mi South 10.4 mph - N/A   Clear
8:53 PM 66.0 °F 62.1 °F 87% 30.24 in 10.0 mi SSW 10.4 mph - N/A   Clear
9:53 PM 64.9 °F 62.1 °F 90% 30.25 in 10.0 mi SSW 6.9 mph - N/A   Clear
10:53 PM 66.0 °F 63.0 °F 90% 30.25 in 10.0 mi SSW 9.2 mph - N/A   Clear
11:53 PM 66.0 °F 62.1 °F 87% 30.26 in 10.0 mi SSW 9.2 mph - N/A   Clear